Location: Hoyos del Collado
(40.3594°N, 5.2003°W)
Time: 05:41:40
(UTC+00:00)

ARIANE 6 FM1 Upper Stage - Visible Passes

Search period start: 06 June 2026 00:00
Search period end: 16 June 2026 00:00
Orbit: 528 x 599 km, 62.0° (Epoch: 5 June)

Date Brightness Start Highest point End Pass type
(mag) Time Alt. Az. Time Alt. Az. Time Alt. Az.
6 Jun 2.7 02:58:35 34° SSW 03:00:18 75° SE 03:04:26 10° NE visible
7 Jun 5.3 01:22:01 10° E 01:22:01 10° E 01:22:19 10° E visible
7 Jun 2.7 02:57:58 35° SW 02:59:39 74° NW 03:03:47 10° NNE visible
8 Jun 4.9 01:21:21 15° E 01:21:21 15° E 01:23:04 10° ENE visible
8 Jun 3.2 02:57:18 30° WSW 02:59:02 50° NW 03:03:03 10° NNE visible
9 Jun 4.5 01:20:38 22° E 01:20:38 22° E 01:23:00 10° ENE visible
9 Jun 3.7 02:56:35 23° W 02:58:26 35° NW 03:02:15 10° NNE visible
10 Jun 4.0 01:19:51 31° E 01:19:51 31° E 01:22:40 10° NE visible
10 Jun 4.3 02:55:48 17° W 02:57:53 25° NW 03:01:21 10° NNE visible
11 Jun 3.5 01:19:01 44° ENE 01:19:01 44° ENE 01:22:11 10° NE visible
11 Jun 4.7 02:54:58 13° W 02:57:22 19° NW 03:00:22 10° N visible
12 Jun 3.1 01:18:08 60° NE 01:18:08 60° NE 01:21:34 10° NE visible
12 Jun 5.1 02:54:30 10° WNW 02:56:52 15° NW 02:59:14 10° N visible
13 Jun 3.0 01:17:11 63° N 01:17:11 63° N 01:20:52 10° NNE visible
13 Jun 5.3 02:55:08 10° NW 02:56:26 11° NNW 02:57:44 10° NNW visible
13 Jun 5.4 23:40:14 10° ENE 23:40:14 10° ENE 23:40:15 10° ENE visible
14 Jun 3.4 01:16:10 47° NW 01:16:10 47° NW 01:20:06 10° NNE visible
14 Jun 5.0 23:39:09 15° ENE 23:39:09 15° ENE 23:40:05 10° ENE visible
15 Jun 3.9 01:15:04 32° WNW 01:15:29 33° NW 01:19:14 10° NNE visible
15 Jun 4.5 23:37:59 22° ENE 23:37:59 22° ENE 23:39:42 10° NE visible
